Regional Weather Roundup
Issued by NWS

Home | Current Version | Previous Version | Text Only | Print | Product List | Glossary Off
Versions: 1 2 3 4 5 6 7 8 9 10 11 12 13 14 15 16 17 18 19 20 21 22 23 24 25 26 27 28 29 30 31 32 33 34 35 36 37 38 39 40 41 42 43 44 45 46 47 48 49 50

000
ASUS43 KBIS 291910
RWRND

NORTH DAKOTA REGIONAL WEATHER ROUNDUP
NATIONAL WEATHER SERVICE BISMARCK ND
200 PM CDT MON JUN 29 2015

NOTE: "FAIR" INDICATES FEW OR NO CLOUDS BELOW 12,000 FEET WITH NO
SIGNIFICANT WEATHER AND/OR OBSTRUCTIONS TO VISIBILITY.


NDZ001>003-009>011-017-292000-
NORTHWEST NORTH DAKOTA

CITY           SKY/WX    TMP DP  RH WIND       PRES   REMARKS
WILLISTON      SUNNY     92  57  30 S8        29.95F HX  90
MINOT          SUNNY     87  60  40 NW8       29.94S
MINOT AFB      SUNNY     91  56  30 N10       29.93S HX  90
$$

NDZ018>021-031>035-040>046-292000-
SOUTHWEST NORTH DAKOTA

CITY           SKY/WX    TMP DP  RH WIND       PRES   REMARKS
BISMARCK       PTSUNNY   90  56  31 NW13      29.96F
DICKINSON      SUNNY     87  59  38 SW8       30.00F
GARRISON         N/A     87  59  38 VRB6      29.97S
HETTINGER ARPT SUNNY     86  63  45 SW9       30.04F
$$

NDZ004>008-012>016-024-026-027-054-292000-
NORTHEAST NORTH DAKOTA

CITY           SKY/WX    TMP DP  RH WIND       PRES   REMARKS
GRAND FORKS    CLOUDY    77  63  61 N12       29.86R
GRND FRKS AFB  SUNNY     75  64  66 N8        29.88R
DEVILS LAKE    SUNNY     75  61  60 N7        29.92S
$$

NDZ022-023-025-028>030-036>039-047>053-292000-
SOUTHEAST NORTH DAKOTA

CITY           SKY/WX    TMP DP  RH WIND       PRES   REMARKS
FARGO          SUNNY     78  63  59 NW12      29.85S
JAMESTOWN      MOSUNNY   80  62  54 N14       29.91S
$$



USA.gov is the U.S. government's official web portal to all federal, state and local government web resources and services.